User: anonymous   Login
Location: Caltech
(34.1382°N, 118.1253°W)
Time: 12:49:47
(UTC-08:00)
Language:

Cosmos 2333 Rocket - Orbit

View from above orbital plane
View from above orbital plane
View from above satellite
View from above satellite

Ground track
Ground track

The orbit data is extracted from the following two-line orbital elements,

1 24298U 96051B   14353.55071193 -.00000112  00000-0 -34529-4 0  6252
2 24298 070.8551 181.5838 0013483 097.3867 324.5306 14.12452521943248
Epoch (UTC): 19 December 2014 13:13:01
Eccentricity: 0.0013483
inclination: 70.8551°
perigee height: 841 km
apogee height: 861 km
right ascension of ascending node: 181.5838°
argument of perigee: 97.3867°
revolutions per day: 14.12452521
mean anomaly at epoch: 324.5306°
orbit number at epoch: 94324

The dashed part of the orbit path shows where the satellite is in the earth's shadow,  

DLR